Voltar ao catálogo

TITAN 34D TRANSTAGE R/B

AtivoGEO
NORAD 18584·ROCKET BODY·🇺🇸 United States

Lançado Nov 29, 1987 de Cape Canaveral Space Force Station

Loading…

TLE

AtualizadoSource: Space-Track

Época: Sep 14, 2026, 04:47 UTC

1 18584U 87097B   26257.19962549 -.00000270  00000-0  00000-0 0  9994
2 18584  10.7083 333.1597 0009209 274.5183  85.3711  1.01242313 26356

Acompanhe TITAN 34D TRANSTAGE R/B em tempo real com AllMySat

Download on the App Store